Regional Weather Roundup
Issued by NWS

Home | Current Version | Previous Version | Text Only | Print | Product List | Glossary On
Versions: 1 2 3 4 5 6 7 8 9 10 11 12 13 14 15 16 17 18 19 20 21 22 23 24 25 26 27 28 29 30 31 32 33 34 35 36 37 38 39 40 41 42 43 44 45 46 47 48 49 50
000
ASUS45 KREV 280710
RWRNV
NEVADA REGIONAL WEATHER ROUNDUP
NATIONAL WEATHER SERVICE RENO NV
1100 PM PST FRI FEB 27 2015

NOTE: "FAIR" INDICATES FEW OR NO CLOUDS BELOW 12,000 FEET WITH NO
SIGNIFICANT WEATHER AND/OR OBSTRUCTIONS TO VISIBILITY.

NVZ001-003-004-280800-
WESTERN NEVADA

CITY           SKY/WX    TMP DP  RH WIND       PRES   REMARKS
RENO           CLOUDY    37  31  78 NE5       29.64S
CARSON CITY    MOCLDY    36  32  87 CALM      29.64S
MINDEN         CLOUDY    32  32 100 CALM      29.65
SLIDE MTN        N/A     19  18  93 W14         N/A
FALLON         PTCLDY    37  32  82 N5        29.64F
LOVELOCK       LGT RAIN  38  34  85 CALM      29.63F
HAWTHORNE      CLOUDY    39  34  81 NW6       29.66R
$$

NVZ002-CAZ072-073-280800-
NORTHERN AND CENTRAL SIERRA

CITY           SKY/WX    TMP DP  RH WIND       PRES   REMARKS
S. LAKE TAHOE  LGT SNOW  33  28  81 CALM      29.62F
TRUCKEE        LGT SNOW  30  30 100 SW6       29.63S
SQUAW VLY 8000   N/A     25  25 100 NW5         N/A
SUSANVILLE     MIX PCPN  36  34  93 S3        29.66F
BLUE CANYON    SNOW      32  29  88 N6        29.66F VSB 1/2
MAMMOTH LAKES  FAIR      28  10  47 NE5       29.63F
BRIDGEPORT     CLOUDY    29  17  61 VRB3      29.61F
$$

NVZ030-031-036-280800-
NORTHERN NEVADA

CITY           SKY/WX    TMP DP  RH WIND       PRES   REMARKS
ELKO           FLURRIES  33  32  96 CALM      29.61S
WINNEMUCCA     FOG       30  29  96 SE3       29.63S VSB 3/4
WENDOVER       PTCLDY    37  25  60 N15       29.67S
$$

NVZ035-037-280800-
CENTRAL NEVADA

CITY           SKY/WX    TMP DP  RH WIND       PRES   REMARKS
ELY            LGT SNOW  30  28  92 NE5       29.62S FOG
EUREKA           N/A     30  28  92 SW3       29.61F
$$

NVZ013-014-280800-
SOUTH CENTRAL NEVADA

CITY           SKY/WX    TMP DP  RH WIND       PRES   REMARKS
TONOPAH        CLOUDY    34  30  85 N8        29.63S
$$

NVZ017-020-022-280800-
SOUTHERN NEVADA

CITY           SKY/WX    TMP DP  RH WIND       PRES   REMARKS
LAS VEGAS      PTCLDY    57  36  45 S17       29.51S
N. LAS VEGAS   CLEAR     56  35  45 S7        29.54S
NELLIS AFB     CLEAR     57  38  49 S10       29.54S
HENDERSON      CLEAR     55  37  50 SW17G23   29.57S
MERCURY        MOCLDY    53  29  39 NW5       29.56R
$$



USA.gov is the U.S. government's official web portal to all federal, state and local government web resources and services.